TimeCST,TemperatureF,Dew PointF,Humidity,Sea Level PressureIn,VisibilityMPH,Wind Direction,Wind SpeedMPH,Gust SpeedMPH,PrecipitationIn,Events,Conditions,WindDirDegrees,DateUTC
12:50 AM,9.0,1.0,70,30.29,10.0,North,6.9,-,N/A,,Scattered Clouds,350,2013-01-01 06:50:00
1:50 AM,8.1,-0.0,70,30.30,10.0,North,5.8,-,N/A,,Partly Cloudy,350,2013-01-01 07:50:00
2:52 AM,6.1,-0.9,73,30.32,10.0,North,6.9,-,N/A,,Clear,350,2013-01-01 08:52:00
3:51 AM,3.9,-2.9,73,30.33,10.0,North,6.9,-,N/A,,Clear,350,2013-01-01 09:51:00
4:52 AM,3.0,-4.0,73,30.34,10.0,NW,4.6,-,N/A,,Clear,320,2013-01-01 10:52:00
5:50 AM,1.9,-4.0,76,30.33,10.0,NW,4.6,-,N/A,,Scattered Clouds,320,2013-01-01 11:50:00
6:52 AM,1.0,-4.0,79,30.32,10.0,NNW,3.5,-,N/A,,Clear,340,2013-01-01 12:52:00
7:52 AM,1.0,-5.1,75,30.33,10.0,NW,3.5,-,N/A,,Partly Cloudy,310,2013-01-01 13:52:00
8:54 AM,1.0,-6.0,72,30.35,10.0,WNW,5.8,-,N/A,,Partly Cloudy,300,2013-01-01 14:54:00
9:54 AM,3.9,-4.0,70,30.37,10.0,WNW,4.6,-,N/A,,Partly Cloudy,290,2013-01-01 15:54:00
10:54 AM,8.1,-2.0,64,30.37,10.0,Calm,Calm,-,N/A,,Partly Cloudy,0,2013-01-01 16:54:00
11:54 AM,10.0,-0.9,61,30.36,10.0,WSW,4.6,-,N/A,,Partly Cloudy,240,2013-01-01 17:54:00
12:54 PM,10.9,-0.0,61,30.33,10.0,SW,4.6,-,N/A,,Partly Cloudy,230,2013-01-01 18:54:00
1:54 PM,12.9,1.0,59,30.31,10.0,SW,5.8,-,N/A,,Partly Cloudy,230,2013-01-01 19:54:00
2:54 PM,14.0,1.0,56,30.31,10.0,SW,4.6,-,,,Partly Cloudy,220,2013-01-01 20:54:00
3:54 PM,15.1,1.0,54,30.30,10.0,SW,4.6,-,N/A,,Partly Cloudy,230,2013-01-01 21:54:00
4:54 PM,15.1,1.0,54,30.29,10.0,SW,3.5,-,N/A,,Partly Cloudy,230,2013-01-01 22:54:00
5:54 PM,15.1,1.0,54,30.28,10.0,Calm,Calm,-,N/A,,Partly Cloudy,0,2013-01-01 23:54:00
6:54 PM,15.1,1.0,54,30.27,10.0,Variable,4.6,-,N/A,,Clear,0,2013-01-02 00:54:00
7:54 PM,10.9,1.0,64,30.25,10.0,SSE,5.8,-,N/A,,Clear,160,2013-01-02 01:54:00
8:54 PM,10.0,-0.0,64,30.26,10.0,South,8.1,-,N/A,,Clear,180,2013-01-02 02:54:00
9:54 PM,10.0,-0.0,64,30.23,10.0,South,8.1,-,N/A,,Clear,170,2013-01-02 03:54:00
10:54 PM,9.0,-0.0,67,30.22,10.0,South,6.9,-,N/A,,Clear,180,2013-01-02 04:54:00
11:54 PM,10.0,1.0,67,30.22,10.0,South,8.1,-,N/A,,Clear,180,2013-01-02 05:54:00